Tracking 29892 objects as of 21-Nov-2024
HD Live streaming from Space Station
objects crossing your sky now

STARLINK-6288

Track STARLINK-6288 now!
10-day predictions
STARLINK-6288 is classified as:


NORAD ID: 56398
Int'l Code: 2023-061AA
Perigee: 565.3 km
Apogee: 567.2 km
Inclination: 43.0 °
Period: 95.8 minutes
Semi major axis: 6937 km
RCS: Unknown
Launch date: May 4, 2023
Source: United States (US)
Launch site: AIR FORCE EASTERN TEST RANGE (AFETR)
Your satellite tracking list
Your tracking list is empty




NASA's NSSDC Master Catalog

Two Line Element Set (TLE):
1 56398U 23061AA  24325.91747161 -.00000633  00000-0 -31788-4 0  9990
2 56398  43.0034 239.1070 0001308 275.8685  84.2008 15.02526529 85925
Source of the keplerian elements: AFSPC